Regional Weather Roundup
Issued by NWS State College, PA

Home | Current Version | Previous Version | Text Only | Print | Product List | Glossary Off
Versions: 1 2 3 4 5 6 7 8 9 10 11 12 13 14 15 16 17 18 19 20 21 22 23 24 25 26 27 28 29 30 31 32 33 34 35 36 37 38 39 40 41 42 43 44 45 46 47 48 49 50

000
ASUS41 KCTP 080303
RWRCTP

REGIONAL WEATHER ROUNDUP
NATIONAL WEATHER SERVICE STATE COLLEGE PA
1000 PM EST SUN FEB 07 2016

Note: "fair" indicates few or no clouds below 12,000 feet with no
significant weather and/or obstructions to visibility.

* = STATION THAT DOES NOT REPORT PRECIPITATION /E.G. RAIN...SNOW...ETC/
    THUNDER OR FOG.

PAZ002>004-007>009-013>016-020>023-029>032-080400-
WESTERN PENNSYLVANIA

CITY           SKY/WX    TMP DP  RH WIND       PRES   REMARKS
ERIE           CLOUDY    44  24  45 S12       29.83F
MEADVILLE      PTCLDY    40  22  48 VRB3      29.83F
FRANKLIN*      PTCLDY    37  21  52 SE8       29.86F
NEW CASTLE     FAIR      39  23  52 SE3       29.85F
BEAVER COUNTY  NOT AVBL
BUTLER*        CLEAR     37  21  52 S3        29.89F
PITTSBURGH INT PTCLDY    39  22  50 S3        29.86F
PITTSBURGH     CLEAR     42  24  49 S7        29.85F
INDIANA*       CLOUDY    32  27  80 E3        29.90S
LATROBE        MOCLDY    32  25  74 CALM      29.88F
WASHINGTON CO* PTCLDY    34  25  69 CALM      29.86F
$$

PAZ004>006-010>012-017>019-024>028-033>037-041-042-045-046-049>053-080400-
CENTRAL PENNSYLVANIA

CITY           SKY/WX    TMP DP  RH WIND       PRES   REMARKS
BRADFORD       CLOUDY    30  22  72 SE3       29.85F
DUBOIS         CLOUDY    34  23  64 E7        29.86S
CLEARFIELD     CLOUDY    29  22  75 N6        29.88F
JOHNSTOWN      CLOUDY    36  20  52 S3        29.85F
ALTOONA        CLOUDY    31  21  66 CALM      29.88F
STATE COLLEGE  CLOUDY    32  23  69 CALM      29.90F
WILLIAMSPORT   CLOUDY    29  23  78 W3        29.94F
SELINSGROVE    CLOUDY    29  24  82 CALM      29.94F
FT INDIANTOWN  CLOUDY    28  26  91 N1        29.92F
CAPITAL CITY   CLOUDY    30  22  72 CALM      29.92F
HARRISBURG     CLOUDY    32  23  69 NW5       29.92F
YORK           PTCLDY    26  22  84 CALM      29.91F
$$

PAZ038>040-043-044-047-048-054-055-060>062-067>071-080400-
EASTERN PENNSYLVANIA

CITY           SKY/WX    TMP DP  RH WIND       PRES   REMARKS
SCRANTON       CLOUDY    34  21  59 NE8       29.93F
MOUNT POCONO   CLOUDY    32  17  54 E6        29.89F
ALLENTOWN      PTCLDY    33  23  66 CALM      29.93F
QUAKERTOWN*    PTCLDY    32  25  74 CALM      29.93F
READING        CLOUDY    34  22  61 N3        29.93F
LANCASTER      CLOUDY    34  22  61 N5        29.92F
COATESVILLE    CLOUDY    37  21  52 N5        29.92F
POTTSTOWN      CLOUDY    36  20  52 CALM      29.94F
BLUE BELL        N/A     34  21  60 CALM      29.93F
DOYLESTOWN     CLOUDY    34  22  61 NE3       29.92F
WILLOW GROVE   NOT AVBL
NORTH PHILA    CLOUDY    39  25  57 NE9       29.93F
PHILADELPHIA   CLOUDY    40  23  50 NE13      29.92F
$$



USA.gov is the U.S. government's official web portal to all federal, state and local government web resources and services.